When you browse on this site, cookies collect data to enhance your experience and personalize the content and advertising you see.
Visit our Privacy Policy to learn more. By continuing to use the site, you agree to this use of cookies and data.
  • In Romania
  • List of Countries
  • For 7 days
  • Water Temperature
  • Weather Map
  • Weather Widgets
  • user-avatar
    Login

    Hourly Weather Singida

    Today, 6 April, Monday

    Time Temperature Precipitation Wind Pressure Humidity
    00:00 +17°C° 0 mm 2 mps 637 mmHg 94%
    01:00 +18°C° 0 mm 1 mps 636 mmHg 94%
    02:00 +16°C° 0 mm 1 mps 636 mmHg 95%
    03:00 +16°C° 0 mm 1 mps 636 mmHg 95%
    04:00 +16°C° 0 mm 1 mps 636 mmHg 96%
    05:00 +16°C° 0 mm 1 mps 636 mmHg 96%
    06:00 +18°C° 0 mm 1 mps 637 mmHg 93%
    07:00 +20°C° 0 mm 1 mps 638 mmHg 89%
    08:00 +22°C° 0 mm 1 mps 639 mmHg 86%
    09:00 +23°C° 0.8 mm 1 mps 639 mmHg 82%
    10:00 +25°C° 0.8 mm 1 mps 639 mmHg 77%
    11:00 +26°C° 0.8 mm 1 mps 640 mmHg 73%
    12:00 +26°C° 1 mm 1 mps 639 mmHg 73%
    13:00 +25°C° 1 mm 0 mps 638 mmHg 73%
    14:00 +24°C° 0 mm 0 mps 637 mmHg 75%
    15:00 +23°C° 0.9 mm 0 mps 637 mmHg 78%
    16:00 +23°C° 0.9 mm 0 mps 637 mmHg 81%
    17:00 +22°C° 0.9 mm 0 mps 636 mmHg 84%
    18:00 +21°C° 2.3 mm 0 mps 636 mmHg 86%
    19:00 +21°C° 2.3 mm 1 mps 637 mmHg 88%
    20:00 +20°C° 2.3 mm 1 mps 637 mmHg 91%
    21:00 +20°C° 0.8 mm 1 mps 637 mmHg 91%
    22:00 +20°C° 0.8 mm 1 mps 637 mmHg 91%
    23:00 +20°C° 0.8 mm 1 mps 637 mmHg 91%

    Tomorrow, 7 April, Tuesday

    Time Temperature Precipitation Wind Pressure Humidity
    00:00 +19°C° 0.5 mm 1 mps 637 mmHg 92%
    01:00 +17°C° 0.5 mm 0 mps 637 mmHg 93%
    02:00 +17°C° 0.5 mm 0 mps 636 mmHg 93%
    03:00 +19°C° 0.6 mm 1 mps 636 mmHg 94%
    04:00 +19°C° 0.6 mm 1 mps 636 mmHg 95%
    05:00 +19°C° 0.6 mm 1 mps 636 mmHg 95%
    06:00 +19°C° 0.2 mm 1 mps 637 mmHg 95%
    07:00 +20°C° 0.2 mm 1 mps 638 mmHg 94%
    08:00 +20°C° 0.2 mm 1 mps 639 mmHg 93%
    09:00 +21°C° 0.7 mm 1 mps 638 mmHg 92%
    10:00 +21°C° 0.7 mm 1 mps 638 mmHg 90%
    11:00 +22°C° 0.7 mm 1 mps 638 mmHg 89%
    12:00 +23°C° 0.8 mm 1 mps 637 mmHg 86%
    13:00 +23°C° 0.8 mm 1 mps 636 mmHg 84%
    14:00 +24°C° 0.8 mm 1 mps 636 mmHg 82%
    15:00 +21°C° 0.7 mm 0 mps 636 mmHg 83%
    16:00 +21°C° 0.7 mm 0 mps 635 mmHg 84%
    17:00 +21°C° 0.7 mm 0 mps 635 mmHg 86%
    18:00 +20°C° 0.6 mm 0 mps 636 mmHg 87%
    19:00 +21°C° 0.6 mm 1 mps 636 mmHg 87%
    20:00 +20°C° 0.6 mm 1 mps 636 mmHg 88%
    21:00 +20°C° 0.4 mm 1 mps 637 mmHg 91%
    22:00 +18°C° 0.4 mm 2 mps 637 mmHg 93%
    23:00 +18°C° 0.4 mm 2 mps 637 mmHg 95%

    Day after tomorrow, 8 April, Wednesday

    Time Temperature Precipitation Wind Pressure Humidity
    00:00 +18°C° 0.6 mm 2 mps 637 mmHg 95%
    01:00 +18°C° 0.6 mm 2 mps 636 mmHg 96%
    02:00 +17°C° 0.6 mm 2 mps 636 mmHg 96%
    03:00 +17°C° 0.7 mm 2 mps 636 mmHg 96%
    04:00 +18°C° 0.7 mm 2 mps 636 mmHg 96%
    05:00 +18°C° 0.7 mm 2 mps 636 mmHg 96%
    06:00 +18°C° 0.1 mm 2 mps 637 mmHg 95%
    07:00 +19°C° 0.1 mm 2 mps 638 mmHg 93%
    08:00 +19°C° 0.1 mm 2 mps 639 mmHg 91%
    09:00 +20°C° 0.8 mm 2 mps 639 mmHg 89%
    10:00 +21°C° 0.8 mm 2 mps 638 mmHg 86%
    11:00 +23°C° 0.8 mm 2 mps 638 mmHg 83%
    12:00 +24°C° 1.3 mm 2 mps 638 mmHg 83%
    13:00 +24°C° 1.3 mm 2 mps 637 mmHg 82%
    14:00 +24°C° 1.3 mm 2 mps 636 mmHg 82%
    15:00 +23°C° 1.4 mm 2 mps 636 mmHg 85%
    16:00 +23°C° 1.4 mm 2 mps 636 mmHg 88%
    17:00 +21°C° 1.4 mm 2 mps 635 mmHg 91%
    18:00 +20°C° 0.8 mm 2 mps 636 mmHg 92%
    19:00 +20°C° 0.8 mm 2 mps 636 mmHg 93%
    20:00 +19°C° 0.8 mm 2 mps 637 mmHg 94%
    21:00 +19°C° 0.8 mm 2 mps 637 mmHg 95%
    22:00 +18°C° 0.8 mm 3 mps 637 mmHg 95%
    23:00 +18°C° 0.8 mm 4 mps 637 mmHg 95%

    9 April, Thursday

    Time Temperature Precipitation Wind Pressure Humidity
    00:00 +18°C° 1.5 mm 3 mps 637 mmHg 96%
    01:00 +18°C° 1.5 mm 3 mps 637 mmHg 97%
    02:00 +18°C° 1.5 mm 2 mps 637 mmHg 97%
    03:00 +17°C° 1.4 mm 2 mps 637 mmHg 97%
    04:00 +17°C° 1.4 mm 2 mps 637 mmHg 97%
    05:00 +17°C° 1.4 mm 2 mps 637 mmHg 96%
    06:00 +17°C° 0.3 mm 2 mps 637 mmHg 95%
    07:00 +18°C° 0.3 mm 2 mps 638 mmHg 94%
    08:00 +18°C° 0.3 mm 2 mps 639 mmHg 93%
    09:00 +20°C° 0.5 mm 2 mps 639 mmHg 89%
    10:00 +23°C° 0.5 mm 2 mps 639 mmHg 85%
    11:00 +24°C° 0.5 mm 2 mps 639 mmHg 80%
    12:00 +24°C° 1.5 mm 2 mps 638 mmHg 81%
    13:00 +24°C° 1.5 mm 2 mps 638 mmHg 83%
    14:00 +24°C° 1.5 mm 2 mps 637 mmHg 84%
    15:00 +23°C° 1.2 mm 2 mps 637 mmHg 86%
    16:00 +23°C° 1.2 mm 2 mps 636 mmHg 89%
    17:00 +21°C° 1.2 mm 2 mps 636 mmHg 91%
    18:00 +20°C° 0.6 mm 2 mps 636 mmHg 92%
    19:00 +19°C° 0.6 mm 3 mps 637 mmHg 93%
    20:00 +18°C° 0.6 mm 3 mps 637 mmHg 95%
    21:00 +18°C° 0 mm 3 mps 637 mmHg 95%
    22:00 +18°C° 0 mm 3 mps 637 mmHg 95%
    23:00 +17°C° 0 mm 3 mps 636 mmHg 96%

    10 April, Friday

    Time Temperature Precipitation Wind Pressure Humidity
    00:00 +17°C° 0 mm 3 mps 636 mmHg 96%
    01:00 +17°C° 0 mm 3 mps 636 mmHg 96%
    02:00 +16°C° 0 mm 3 mps 636 mmHg 96%
    03:00 +16°C° 0 mm 3 mps 636 mmHg 96%
    04:00 +16°C° 0 mm 3 mps 636 mmHg 96%
    05:00 +14°C° 0 mm 3 mps 636 mmHg 96%
    06:00 +15°C° 0 mm 4 mps 637 mmHg 95%
    07:00 +17°C° 0 mm 4 mps 637 mmHg 93%
    08:00 +18°C° 0 mm 4 mps 638 mmHg 92%
    09:00 +20°C° 0 mm 4 mps 638 mmHg 85%
    10:00 +21°C° 0 mm 4 mps 638 mmHg 78%
    11:00 +23°C° 0 mm 4 mps 638 mmHg 72%
    12:00 +23°C° 0 mm 4 mps 638 mmHg 70%
    13:00 +25°C° 0 mm 4 mps 637 mmHg 69%
    14:00 +25°C° 0 mm 4 mps 637 mmHg 68%
    15:00 +24°C° 0 mm 3 mps 636 mmHg 73%
    16:00 +24°C° 0 mm 3 mps 636 mmHg 78%
    17:00 +23°C° 0 mm 2 mps 636 mmHg 83%
    18:00 +21°C° 0 mm 3 mps 636 mmHg 86%
    19:00 +19°C° 0 mm 3 mps 636 mmHg 88%
    20:00 +18°C° 0 mm 3 mps 637 mmHg 91%
    21:00 +18°C° 0 mm 3 mps 637 mmHg 91%
    22:00 +18°C° 0 mm 3 mps 637 mmHg 92%
    23:00 +17°C° 0 mm 3 mps 637 mmHg 92%

    11 April, Saturday

    Time Temperature Precipitation Wind Pressure Humidity
    00:00 +17°C° 0 mm 3 mps 636 mmHg 91%
    01:00 +17°C° 0 mm 3 mps 636 mmHg 91%
    02:00 +17°C° 0 mm 4 mps 635 mmHg 91%
    03:00 +16°C° 0 mm 3 mps 635 mmHg 92%
    04:00 +16°C° 0 mm 3 mps 635 mmHg 93%
    05:00 +16°C° 0 mm 3 mps 635 mmHg 94%
    06:00 +17°C° 0 mm 3 mps 636 mmHg 90%
    07:00 +18°C° 0 mm 4 mps 637 mmHg 85%
    08:00 +20°C° 0 mm 4 mps 638 mmHg 81%
    09:00 +21°C° 0 mm 4 mps 638 mmHg 76%
    10:00 +22°C° 0 mm 4 mps 639 mmHg 71%
    11:00 +25°C° 0 mm 4 mps 639 mmHg 66%
    12:00 +25°C° 0 mm 4 mps 638 mmHg 65%
    13:00 +26°C° 0 mm 4 mps 637 mmHg 64%
    14:00 +26°C° 0 mm 3 mps 637 mmHg 64%
    15:00 +25°C° 0 mm 3 mps 636 mmHg 70%
    16:00 +24°C° 0 mm 3 mps 636 mmHg 76%
    17:00 +22°C° 0 mm 3 mps 635 mmHg 82%
    18:00 +21°C° 0 mm 3 mps 636 mmHg 86%
    19:00 +20°C° 0 mm 3 mps 636 mmHg 90%
    20:00 +18°C° 0 mm 3 mps 636 mmHg 94%
    21:00 +18°C° 0 mm 3 mps 636 mmHg 94%
    22:00 +18°C° 0 mm 3 mps 637 mmHg 94%
    23:00 +18°C° 0 mm 3 mps 637 mmHg 94%
    Show more